Tracking 19817 objects as of 19-Aug-2019
HD Live streaming from Space Station
objects crossing your sky now

COSMOS 2251 DEB

Track COSMOS 2251 DEB now!
10-day predictions


NORAD ID: 36424
Int'l Code: 1993-036AZX
Perigee: 727.6 km
Apogee: 883.7 km
Inclination: 74.2 °
Period: 100.8 minutes
Semi major axis: 7176 km
RCS: 0.0035 m2 (small)
Launch date: June 16, 1993
Source: Commonwealth of Independent States (former USSR) (CIS)
Launch site: PLESETSK MISSILE AND SPACE COMPLEX (PKMTR)

Note: This is SATELLITE DEBRIS
aabbcc
Your satellite tracking list
Your tracking list is empty




NASA's NSSDC Master Catalog

Two Line Element Set (TLE):
1 36424U 93036AZX 19230.53760005 +.00000785 +00000-0 +30628-3 0  9993
2 36424 074.1798 067.7763 0108780 159.5353 201.0207 14.27981883510377
Source of the keplerian elements: AFSPC